TimeAST,TemperatureF,Dew PointF,Humidity,Sea Level PressureIn,VisibilityMPH,Wind Direction,Wind SpeedMPH,Gust SpeedMPH,PrecipitationIn,Events,Conditions,WindDirDegrees,DateUTC
12:00 AM,17.6,8.6,68,29.83,15.0,WSW,17.3,24.2,N/A,,Partly Cloudy,250,2012-12-25 04:00:00
1:00 AM,15.8,8.6,73,29.83,15.0,WSW,18.4,31.1,N/A,,Partly Cloudy,250,2012-12-25 05:00:00
2:00 AM,16,9,62,29.84,15,WSW,16.1,,,,Scattered Clouds,250,2012-12-25 06:00:00
2:00 AM,15.8,8.6,73,29.84,15.0,WSW,19.6,26.5,N/A,,Partly Cloudy,250,2012-12-25 06:00:00
3:00 AM,15.8,8.6,73,29.85,15.0,WSW,23.0,34.5,N/A,,Clear,240,2012-12-25 07:00:00
4:00 AM,15.8,8.6,73,29.86,15.0,WSW,17.3,27.6,N/A,,Clear,240,2012-12-25 08:00:00
5:00 AM,15.8,8.6,73,29.86,15.0,WSW,15.0,24.2,N/A,,Clear,250,2012-12-25 09:00:00
6:00 AM,15.8,8.6,73,29.87,15.0,WSW,17.3,26.5,N/A,,Clear,250,2012-12-25 10:00:00
7:00 AM,14.0,8.6,79,29.91,15.0,West,12.7,20.7,N/A,,Partly Cloudy,260,2012-12-25 11:00:00
8:00 AM,15,10,70,29.92,15,West,11.5,,,,Scattered Clouds,260,2012-12-25 12:00:00
8:00 AM,15.8,10.4,79,29.92,15.0,West,11.5,-,N/A,,Scattered Clouds,270,2012-12-25 12:00:00
9:00 AM,15.8,8.6,73,29.94,15.0,West,9.2,19.6,N/A,,Partly Cloudy,270,2012-12-25 13:00:00
10:00 AM,17.6,10.4,73,29.97,15.0,West,11.5,18.4,N/A,,Partly Cloudy,270,2012-12-25 14:00:00
11:00 AM,17.6,10.4,73,29.98,15.0,West,10.4,18.4,N/A,,Mostly Cloudy,270,2012-12-25 15:00:00
12:00 PM,19.4,10.4,68,29.96,15.0,West,9.2,-,N/A,,Scattered Clouds,260,2012-12-25 16:00:00
1:00 PM,19.4,12.2,74,29.95,15.0,WSW,10.4,-,N/A,,Scattered Clouds,250,2012-12-25 17:00:00
2:00 PM,20,12,61,29.96,15,West,6.9,,,,Scattered Clouds,280,2012-12-25 18:00:00
2:00 PM,21.2,12.2,68,29.96,15.0,WNW,5.8,-,N/A,,Mostly Cloudy,300,2012-12-25 18:00:00
3:00 PM,19.4,12.2,74,29.98,15.0,WNW,6.9,-,N/A,,Mostly Cloudy,300,2012-12-25 19:00:00
4:00 PM,19.4,12.2,74,29.99,15.0,NW,4.6,-,N/A,,Scattered Clouds,320,2012-12-25 20:00:00
5:00 PM,15.8,10.4,79,30.00,15.0,Calm,Calm,-,N/A,,Scattered Clouds,0,2012-12-25 21:00:00
6:00 PM,15.8,10.4,79,30.01,15.0,WNW,3.5,-,N/A,,Scattered Clouds,290,2012-12-25 22:00:00
7:00 PM,17.6,12.2,79,30.01,15.0,WSW,2.3,-,N/A,,Scattered Clouds,250,2012-12-25 23:00:00
8:00 PM,19,13,67,30.03,15,WSW,3.5,,,,Mostly Cloudy,250,2012-12-26 00:00:00
8:00 PM,19.4,12.2,74,30.03,15.0,WSW,4.6,-,N/A,,Mostly Cloudy,250,2012-12-26 00:00:00
9:00 PM,19.4,14.0,80,30.04,15.0,WSW,5.8,-,N/A,,Overcast,240,2012-12-26 01:00:00
10:00 PM,21.2,15.8,80,30.04,15.0,West,6.9,-,N/A,,Overcast,260,2012-12-26 02:00:00
10:07 PM,21.2,15.8,80,30.05,12.0,WSW,6.9,-,N/A,Snow,Light Snow Showers,250,2012-12-26 02:07:00
11:00 PM,21.2,17.6,86,30.07,12.0,WSW,6.9,-,N/A,Snow,Light Snow Showers,250,2012-12-26 03:00:00